Location: ????
(30.1475°N, 31.1342°E)
Time: 08:16:06
(UTC+00:00)

Meteor 1-14 Rocket - Pass Details

Date: 31 March 2023
Orbit: 834 x 918 km, 81.3° (Epoch: 03 June)

Event Time Altitude Azimuth Distance (km) Brightness Sun altitude
Rises 01:58:48 0° 347° (NNW) 3,390 7.4 -23.6°
Reaches altitude 10° 02:01:14 10° 344° (NNW) 2,459 6.6 -23.1°
Maximum altitude 02:06:41 59° 266° (W) 971 4.1 -21.9°
Drops below altitude 10° 02:12:13 10° 187° (S) 2,489 6.4 -20.8°
Sets 02:14:41 0° 184° (S) 3,435 7.2 -20.3°
